TimeEDT,TemperatureF,Dew PointF,Humidity,Sea Level PressureIn,VisibilityMPH,Wind Direction,Wind SpeedMPH,Gust SpeedMPH,PrecipitationIn,Events,Conditions,WindDirDegrees,DateUTC
12:10 AM,69.8,66.2,88,30.03,8.0,SE,6.9,-,N/A,,Overcast,140,2013-10-03 04:10:00
12:54 AM,69.1,66.0,90,30.02,7.0,South,9.2,-,N/A,Rain,Light Rain,190,2013-10-03 04:54:00
1:03 AM,69.8,66.2,88,30.03,7.0,SSW,10.4,-,N/A,Rain,Light Rain,200,2013-10-03 05:03:00
1:14 AM,69.8,66.2,88,30.02,7.0,South,6.9,-,N/A,,Overcast,190,2013-10-03 05:14:00
1:54 AM,68.0,66.0,93,30.01,6.0,South,4.6,-,N/A,,Overcast,180,2013-10-03 05:54:00
2:54 AM,68.0,64.9,90,30.01,9.0,SW,4.6,-,N/A,,Overcast,220,2013-10-03 06:54:00
3:54 AM,66.9,64.0,90,30.01,10.0,SW,4.6,-,N/A,,Overcast,220,2013-10-03 07:54:00
4:54 AM,68.0,64.0,87,30.01,10.0,South,6.9,-,N/A,,Overcast,190,2013-10-03 08:54:00
5:54 AM,66.9,64.0,90,30.02,8.0,SSW,6.9,-,N/A,Rain,Light Rain,210,2013-10-03 09:54:00
6:54 AM,66.9,64.9,93,30.03,8.0,South,5.8,-,N/A,,Overcast,180,2013-10-03 10:54:00
7:54 AM,66.0,64.9,96,30.03,6.0,SSW,5.8,-,N/A,,Mostly Cloudy,210,2013-10-03 11:54:00
8:43 AM,66.2,64.4,94,30.05,4.0,SSW,5.8,-,N/A,,Overcast,200,2013-10-03 12:43:00
8:52 AM,66.2,64.4,94,30.05,5.0,SSW,5.8,-,N/A,,Mostly Cloudy,210,2013-10-03 12:52:00
8:54 AM,66.9,64.9,93,30.04,5.0,SSW,5.8,-,N/A,,Mostly Cloudy,200,2013-10-03 12:54:00
9:54 AM,69.1,66.0,90,30.05,10.0,SSW,8.1,-,N/A,,Mostly Cloudy,200,2013-10-03 13:54:00
10:54 AM,72.0,66.0,81,30.04,10.0,SSW,10.4,-,N/A,,Mostly Cloudy,200,2013-10-03 14:54:00
11:54 AM,73.9,66.0,76,30.04,10.0,SSW,12.7,-,N/A,,Mostly Cloudy,210,2013-10-03 15:54:00
12:54 PM,75.9,64.9,69,30.03,10.0,SSW,12.7,-,N/A,,Mostly Cloudy,210,2013-10-03 16:54:00
1:54 PM,77.0,64.0,64,30.00,10.0,South,12.7,-,N/A,,Mostly Cloudy,190,2013-10-03 17:54:00
2:54 PM,79.0,64.0,60,29.99,10.0,SSW,13.8,-,N/A,,Mostly Cloudy,200,2013-10-03 18:54:00
3:54 PM,81.0,63.0,54,29.96,10.0,South,16.1,-,N/A,,Mostly Cloudy,190,2013-10-03 19:54:00
4:54 PM,81.0,62.1,52,29.96,10.0,South,17.3,-,N/A,,Mostly Cloudy,190,2013-10-03 20:54:00
5:54 PM,79.0,63.0,58,29.96,10.0,South,13.8,-,N/A,,Scattered Clouds,190,2013-10-03 21:54:00
6:54 PM,77.0,64.0,64,29.95,10.0,South,12.7,-,N/A,,Scattered Clouds,170,2013-10-03 22:54:00
7:54 PM,73.9,64.0,71,29.96,10.0,South,8.1,-,N/A,,Scattered Clouds,170,2013-10-03 23:54:00
8:54 PM,73.0,64.9,76,29.97,10.0,SSE,10.4,-,N/A,,Scattered Clouds,160,2013-10-04 00:54:00
9:54 PM,71.1,64.9,81,29.99,10.0,South,8.1,-,N/A,,Scattered Clouds,170,2013-10-04 01:54:00
10:54 PM,71.1,64.9,81,29.99,10.0,South,10.4,-,N/A,,Mostly Cloudy,170,2013-10-04 02:54:00